Year,Month,Day,Hour,Minute,Value (Times are PST for temperature in C)
2009,07,04,00,00,19.10
2009,07,04,00,01,19.10
2009,07,04,00,02,19.00
2009,07,04,00,03,18.90
2009,07,04,00,04,18.90
2009,07,04,00,05,18.80
2009,07,04,00,06,18.70
2009,07,04,00,07,18.70
2009,07,04,00,08,18.80
2009,07,04,00,09,19.10
2009,07,04,00,10,19.30
2009,07,04,00,11,19.40
2009,07,04,00,12,19.50
2009,07,04,00,18,19.60
2009,07,04,00,19,19.80
2009,07,04,00,20,19.90
2009,07,04,00,21,20.00
2009,07,04,00,22,20.00
2009,07,04,00,23,20.00
2009,07,04,00,24,20.00
2009,07,04,00,25,19.90
2009,07,04,00,26,19.90
2009,07,04,00,27,19.80
2009,07,04,00,28,19.80
2009,07,04,00,29,19.70
2009,07,04,00,30,19.70
2009,07,04,00,31,19.60
2009,07,04,00,32,19.60
2009,07,04,00,33,19.40
2009,07,04,00,34,19.30
2009,07,04,00,35,19.20
2009,07,04,00,36,19.10
2009,07,04,00,37,19.00
2009,07,04,00,38,18.90
2009,07,04,00,39,18.90
2009,07,04,00,40,18.80
2009,07,04,00,41,18.70
2009,07,04,00,42,18.60
2009,07,04,00,43,18.50
2009,07,04,00,44,18.50
2009,07,04,00,45,18.40
2009,07,04,00,46,18.30
2009,07,04,00,47,18.30
2009,07,04,00,48,18.20
2009,07,04,00,49,18.20
2009,07,04,00,50,18.10
2009,07,04,00,51,18.10
2009,07,04,00,52,18.00
2009,07,04,00,53,18.00
2009,07,04,00,54,17.90
2009,07,04,00,55,17.90
2009,07,04,00,56,17.80
2009,07,04,00,57,17.80
2009,07,04,00,58,17.70
2009,07,04,00,59,17.70
2009,07,04,01,00,17.60
2009,07,04,01,01,17.60
2009,07,04,01,02,17.50
2009,07,04,01,03,17.50
2009,07,04,01,04,17.50
2009,07,04,01,05,17.40
2009,07,04,01,06,17.40
2009,07,04,01,07,17.50
2009,07,04,01,08,17.80
2009,07,04,01,09,18.10
2009,07,04,01,10,18.20
2009,07,04,01,11,18.30
2009,07,04,01,12,18.30
2009,07,04,01,13,18.30
2009,07,04,01,14,18.30
2009,07,04,01,15,18.20
2009,07,04,01,16,18.10
2009,07,04,01,17,18.00
2009,07,04,01,18,17.90
2009,07,04,01,19,17.80
2009,07,04,01,20,17.70
2009,07,04,01,21,17.60
2009,07,04,01,22,17.50
2009,07,04,01,23,17.40
2009,07,04,01,24,17.40
2009,07,04,01,25,17.30
2009,07,04,01,26,17.20
2009,07,04,01,27,17.20
2009,07,04,01,28,17.10
2009,07,04,01,29,17.10
2009,07,04,01,30,17.10
2009,07,04,01,31,17.00
2009,07,04,01,32,17.00
2009,07,04,01,33,16.90
2009,07,04,01,34,16.80
2009,07,04,01,35,16.80
2009,07,04,01,36,16.70
2009,07,04,01,37,16.70
2009,07,04,01,38,16.60
2009,07,04,01,39,16.60
2009,07,04,01,40,16.60
2009,07,04,01,41,16.50
2009,07,04,01,42,16.40
2009,07,04,01,43,16.40
2009,07,04,01,44,16.30
2009,07,04,01,45,16.30
2009,07,04,01,46,16.30
2009,07,04,01,47,16.30
2009,07,04,01,48,16.20
2009,07,04,01,49,16.20
2009,07,04,01,50,16.30
2009,07,04,01,51,16.30
2009,07,04,01,52,16.30
2009,07,04,01,53,16.30
2009,07,04,01,54,16.30
2009,07,04,01,55,16.30
2009,07,04,01,56,16.30
2009,07,04,01,57,16.30
2009,07,04,01,58,16.30
2009,07,04,01,59,16.30
2009,07,04,02,00,16.30
2009,07,04,02,01,16.20
2009,07,04,02,02,16.20
2009,07,04,02,03,16.10
2009,07,04,02,04,16.10
2009,07,04,02,05,16.10
2009,07,04,02,06,16.00
2009,07,04,02,07,16.00
2009,07,04,02,08,15.90
2009,07,04,02,09,15.90
2009,07,04,02,10,15.80
2009,07,04,02,11,15.80
2009,07,04,02,12,15.80
2009,07,04,02,13,15.70
2009,07,04,02,14,15.70
2009,07,04,02,15,15.70
2009,07,04,02,16,15.70
2009,07,04,02,17,15.60
2009,07,04,02,18,15.60
2009,07,04,02,19,15.50
2009,07,04,02,20,15.40
2009,07,04,02,21,15.40
2009,07,04,02,22,15.40
2009,07,04,02,23,15.30
2009,07,04,02,24,15.30
2009,07,04,02,25,15.30
2009,07,04,02,26,15.30
2009,07,04,02,27,15.20
2009,07,04,02,28,15.20
2009,07,04,02,29,15.20
2009,07,04,02,30,15.20
2009,07,04,02,31,15.20
2009,07,04,02,32,15.20
2009,07,04,02,33,15.20
2009,07,04,02,34,15.20
2009,07,04,02,35,15.20
2009,07,04,02,36,15.20
2009,07,04,02,37,15.10
2009,07,04,02,38,15.10
2009,07,04,02,39,15.00
2009,07,04,02,40,15.00
2009,07,04,02,41,15.00
2009,07,04,02,42,15.00
2009,07,04,02,43,15.00
2009,07,04,02,44,15.00
2009,07,04,02,45,15.00
2009,07,04,02,46,15.00
2009,07,04,02,47,15.00
2009,07,04,02,48,15.00
2009,07,04,02,49,14.90
2009,07,04,02,50,14.90
2009,07,04,02,51,14.80
2009,07,04,02,52,14.80
2009,07,04,02,53,14.70
2009,07,04,02,54,14.70
2009,07,04,02,55,14.70
2009,07,04,02,56,14.70
2009,07,04,02,57,14.60
2009,07,04,02,58,14.60
2009,07,04,02,59,14.60
2009,07,04,03,00,14.60
2009,07,04,03,01,14.60
2009,07,04,03,02,14.50
2009,07,04,03,03,14.50
2009,07,04,03,04,14.50
2009,07,04,03,05,14.40
2009,07,04,03,06,14.40
2009,07,04,03,07,14.40
2009,07,04,03,08,14.40
2009,07,04,03,09,14.40
2009,07,04,03,10,14.30
2009,07,04,03,11,14.30
2009,07,04,03,12,14.30
2009,07,04,03,13,14.30
2009,07,04,03,14,14.30
2009,07,04,03,15,14.30
2009,07,04,03,16,14.30
2009,07,04,03,17,14.30
2009,07,04,03,18,14.30
2009,07,04,03,19,14.30
2009,07,04,03,20,14.20
2009,07,04,03,21,14.20
2009,07,04,03,22,14.20
2009,07,04,03,23,14.20
2009,07,04,03,24,14.20
2009,07,04,03,25,14.20
2009,07,04,03,26,14.10
2009,07,04,03,27,14.10
2009,07,04,03,28,14.10
2009,07,04,03,29,14.10
2009,07,04,03,30,14.10
2009,07,04,03,31,14.10
2009,07,04,03,32,14.10
2009,07,04,03,33,14.10
2009,07,04,03,34,14.10
2009,07,04,03,35,14.10
2009,07,04,03,36,14.10
2009,07,04,03,37,14.10
2009,07,04,03,38,14.00
2009,07,04,03,39,14.00
2009,07,04,03,40,13.90
2009,07,04,03,41,13.90
2009,07,04,03,42,13.80
2009,07,04,03,43,13.80
2009,07,04,03,44,13.80
2009,07,04,03,45,13.80
2009,07,04,03,46,13.80
2009,07,04,03,47,13.80
2009,07,04,03,48,13.80
2009,07,04,03,49,13.80
2009,07,04,03,50,13.80
2009,07,04,03,51,13.80
2009,07,04,03,52,13.80
2009,07,04,03,53,13.80
2009,07,04,03,54,13.80
2009,07,04,03,55,13.80
2009,07,04,03,56,13.80
2009,07,04,03,57,13.80
2009,07,04,03,58,13.80
2009,07,04,03,59,13.70
2009,07,04,04,00,13.70
2009,07,04,04,01,13.70
2009,07,04,04,02,13.70
2009,07,04,04,03,13.70
2009,07,04,04,04,13.60
2009,07,04,04,05,13.60
2009,07,04,04,06,13.60
2009,07,04,04,07,13.60
2009,07,04,04,08,13.60
2009,07,04,04,09,13.60
2009,07,04,04,10,13.60
2009,07,04,04,11,13.50
2009,07,04,04,12,13.50
2009,07,04,04,13,13.50
2009,07,04,04,14,13.50
2009,07,04,04,15,13.50
2009,07,04,04,16,13.50
2009,07,04,04,17,13.40
2009,07,04,04,18,13.40
2009,07,04,04,19,13.40
2009,07,04,04,20,13.30
2009,07,04,04,21,13.30
2009,07,04,04,22,13.30
2009,07,04,04,23,13.20
2009,07,04,04,24,13.20
2009,07,04,04,25,13.10
2009,07,04,04,26,13.10
2009,07,04,04,27,13.00
2009,07,04,04,28,12.90
2009,07,04,04,29,12.90
2009,07,04,04,30,12.90
2009,07,04,04,31,12.90
2009,07,04,04,32,12.80
2009,07,04,04,33,12.80
2009,07,04,04,34,12.80
2009,07,04,04,35,12.80
2009,07,04,04,36,12.80
2009,07,04,04,37,12.70
2009,07,04,04,38,12.70
2009,07,04,04,39,12.60
2009,07,04,04,40,12.60
2009,07,04,04,41,12.60
2009,07,04,04,42,12.60
2009,07,04,04,43,12.60
2009,07,04,04,44,12.60
2009,07,04,04,45,12.50
2009,07,04,04,46,12.50
2009,07,04,04,47,12.40
2009,07,04,04,48,12.40
2009,07,04,04,49,12.40
2009,07,04,04,50,12.30
2009,07,04,04,51,12.30
2009,07,04,04,52,12.20
2009,07,04,04,53,12.20
2009,07,04,04,54,12.20
2009,07,04,04,55,12.20
2009,07,04,04,56,12.20
2009,07,04,04,57,12.20
2009,07,04,04,58,12.20
2009,07,04,04,59,12.20
2009,07,04,05,00,12.20
2009,07,04,05,01,12.20
2009,07,04,05,02,12.20
2009,07,04,05,03,12.20
2009,07,04,05,04,12.20
2009,07,04,05,05,12.20
2009,07,04,05,06,12.20
2009,07,04,05,07,12.20
2009,07,04,05,08,12.20
2009,07,04,05,09,12.30
2009,07,04,05,10,12.30
2009,07,04,05,11,12.40
2009,07,04,05,12,12.40
2009,07,04,05,13,12.40
2009,07,04,05,14,12.40
2009,07,04,05,15,12.40
2009,07,04,05,16,12.40
2009,07,04,05,17,12.40
2009,07,04,05,18,12.30
2009,07,04,05,19,12.30
2009,07,04,05,20,12.30
2009,07,04,05,21,12.40
2009,07,04,05,22,12.40
2009,07,04,05,23,12.40
2009,07,04,05,24,12.50
2009,07,04,05,25,12.50
2009,07,04,05,26,12.50
2009,07,04,05,27,12.40
2009,07,04,05,28,12.40
2009,07,04,05,29,12.40
2009,07,04,05,30,12.30
2009,07,04,05,31,12.30
2009,07,04,05,32,12.30
2009,07,04,05,33,12.30
2009,07,04,05,34,12.20
2009,07,04,05,35,12.20
2009,07,04,05,36,12.20
2009,07,04,05,37,12.20
2009,07,04,05,38,12.20
2009,07,04,05,39,12.10
2009,07,04,05,40,12.10
2009,07,04,05,41,12.20
2009,07,04,05,42,12.20
2009,07,04,05,43,12.30
2009,07,04,05,44,12.30
2009,07,04,05,45,12.30
2009,07,04,05,46,12.20
2009,07,04,05,47,12.20
2009,07,04,05,48,12.20
2009,07,04,05,49,12.20
2009,07,04,05,50,12.20
2009,07,04,05,51,12.10
2009,07,04,05,52,12.10
2009,07,04,05,53,12.10
2009,07,04,05,54,12.00
2009,07,04,05,55,12.00
2009,07,04,05,56,12.00
2009,07,04,05,57,12.00
2009,07,04,05,58,12.00
2009,07,04,05,59,11.90
2009,07,04,06,00,12.00
2009,07,04,06,01,12.00
2009,07,04,06,02,12.00
2009,07,04,06,03,12.10
2009,07,04,06,04,12.10
2009,07,04,06,05,12.10
2009,07,04,06,06,12.10
2009,07,04,06,07,12.10
2009,07,04,06,08,12.10
2009,07,04,06,09,12.10
2009,07,04,06,10,12.10
2009,07,04,06,11,12.10
2009,07,04,06,12,12.20
2009,07,04,06,13,12.20
2009,07,04,06,14,12.20
2009,07,04,06,15,12.20
2009,07,04,06,16,12.20
2009,07,04,06,17,12.20
2009,07,04,06,18,12.30
2009,07,04,06,19,12.30
2009,07,04,06,20,12.30
2009,07,04,06,21,12.30
2009,07,04,06,22,12.30
2009,07,04,06,23,12.30
2009,07,04,06,24,12.30
2009,07,04,06,25,12.40
2009,07,04,06,26,12.40
2009,07,04,06,27,12.40
2009,07,04,06,28,12.40
2009,07,04,06,29,12.40
2009,07,04,06,30,12.40
2009,07,04,06,31,12.40
2009,07,04,06,32,12.40
2009,07,04,06,33,12.50
2009,07,04,06,34,12.50
2009,07,04,06,35,12.60
2009,07,04,06,36,12.60
2009,07,04,06,37,12.60
2009,07,04,06,38,12.70
2009,07,04,06,39,12.70
2009,07,04,06,40,12.80
2009,07,04,06,41,12.80
2009,07,04,06,42,12.80
2009,07,04,06,43,12.90
2009,07,04,06,44,12.90
2009,07,04,06,45,13.00
2009,07,04,06,46,13.10
2009,07,04,06,47,13.10
2009,07,04,06,48,13.20
2009,07,04,06,49,13.20
2009,07,04,06,50,13.20
2009,07,04,06,51,13.30
2009,07,04,06,52,13.30
2009,07,04,06,53,13.40
2009,07,04,06,54,13.50
2009,07,04,06,55,13.60
2009,07,04,06,56,13.70
2009,07,04,06,57,13.80
2009,07,04,06,58,13.90
2009,07,04,06,59,14.00
2009,07,04,07,00,14.20
2009,07,04,07,01,14.30
2009,07,04,07,02,14.40
2009,07,04,07,03,14.50
2009,07,04,07,04,14.60
2009,07,04,07,05,14.80
2009,07,04,07,06,14.90
2009,07,04,07,07,15.00
2009,07,04,07,08,15.00
2009,07,04,07,09,15.00
2009,07,04,07,10,15.10
2009,07,04,07,11,15.20
2009,07,04,07,12,15.20
2009,07,04,07,13,15.20
2009,07,04,07,14,15.20
2009,07,04,07,15,15.30
2009,07,04,07,16,15.30
2009,07,04,07,17,15.30
2009,07,04,07,18,15.40
2009,07,04,07,19,15.50
2009,07,04,07,20,15.50
2009,07,04,07,21,15.60
2009,07,04,07,22,15.60
2009,07,04,07,23,15.70
2009,07,04,07,24,15.80
2009,07,04,07,25,15.90
2009,07,04,07,26,16.00
2009,07,04,07,27,16.10
2009,07,04,07,28,16.20
2009,07,04,07,29,16.30
2009,07,04,07,30,16.40
2009,07,04,07,31,16.50
2009,07,04,07,32,16.70
2009,07,04,07,33,16.70
2009,07,04,07,34,16.80
2009,07,04,07,35,16.90
2009,07,04,07,36,17.00
2009,07,04,07,37,17.00
2009,07,04,07,38,17.10
2009,07,04,07,39,17.10
2009,07,04,07,40,17.10
2009,07,04,07,41,17.20
2009,07,04,07,42,17.20
2009,07,04,07,43,17.20
2009,07,04,07,44,17.30
2009,07,04,07,45,17.30
2009,07,04,07,46,17.40
2009,07,04,07,47,17.40
2009,07,04,07,48,17.50
2009,07,04,07,49,17.60
2009,07,04,07,50,17.60
2009,07,04,07,51,17.70
2009,07,04,07,52,17.80
2009,07,04,07,53,17.90
2009,07,04,07,54,18.00
2009,07,04,07,55,18.10
2009,07,04,07,56,18.30
2009,07,04,07,57,18.40
2009,07,04,07,58,18.50
2009,07,04,07,59,18.70
2009,07,04,08,00,18.80
2009,07,04,08,01,19.00
2009,07,04,08,02,19.20
2009,07,04,08,03,19.30
2009,07,04,08,04,19.50
2009,07,04,08,05,19.60
2009,07,04,08,06,19.80
2009,07,04,08,07,19.90
2009,07,04,08,08,20.00
2009,07,04,08,09,20.10
2009,07,04,08,10,20.20
2009,07,04,08,11,20.20
2009,07,04,08,12,20.30
2009,07,04,08,13,20.30
2009,07,04,08,14,20.40
2009,07,04,08,15,20.40
2009,07,04,08,16,20.40
2009,07,04,08,17,20.50
2009,07,04,08,18,20.50
2009,07,04,08,19,20.50
2009,07,04,08,20,20.60
2009,07,04,08,21,20.60
2009,07,04,08,22,20.60
2009,07,04,08,23,20.70
2009,07,04,08,24,20.70
2009,07,04,08,25,20.70
2009,07,04,08,26,20.70
2009,07,04,08,27,20.70
2009,07,04,08,28,20.70
2009,07,04,08,29,20.70
2009,07,04,08,30,20.70
2009,07,04,08,31,20.70
2009,07,04,08,32,20.70
2009,07,04,08,33,20.70
2009,07,04,08,34,20.60
2009,07,04,08,35,20.60
2009,07,04,08,36,20.70
2009,07,04,08,37,20.70
2009,07,04,08,38,20.70
2009,07,04,08,39,20.80
2009,07,04,08,40,20.70
2009,07,04,08,41,20.70
2009,07,04,08,42,20.70
2009,07,04,08,43,20.80
2009,07,04,08,44,20.80
2009,07,04,08,45,20.90
2009,07,04,08,46,20.90
2009,07,04,08,47,20.90
2009,07,04,08,48,20.90
2009,07,04,08,49,21.00
2009,07,04,08,50,21.00
2009,07,04,08,51,21.10
2009,07,04,08,52,21.20
2009,07,04,08,53,21.20
2009,07,04,08,54,21.30
2009,07,04,08,55,21.30
2009,07,04,08,56,21.30
2009,07,04,08,57,21.30
2009,07,04,08,58,21.30
2009,07,04,08,59,21.40
2009,07,04,09,00,21.30
2009,07,04,09,01,21.30
2009,07,04,09,02,21.30
2009,07,04,09,03,21.30
2009,07,04,09,04,21.30
2009,07,04,09,05,21.30
2009,07,04,09,06,21.30
2009,07,04,09,07,21.30
2009,07,04,09,08,21.30
2009,07,04,09,09,21.20
2009,07,04,09,10,21.30
2009,07,04,09,11,21.30
2009,07,04,09,12,21.30
2009,07,04,09,13,21.20
2009,07,04,09,14,21.10
2009,07,04,09,15,21.00
2009,07,04,09,16,21.00
2009,07,04,09,17,20.90
2009,07,04,09,18,20.80
2009,07,04,09,19,20.80
2009,07,04,09,20,20.80
2009,07,04,09,21,20.80
2009,07,04,09,22,20.80
2009,07,04,09,23,20.90
2009,07,04,09,24,20.90
2009,07,04,09,25,21.00
2009,07,04,09,26,21.00
2009,07,04,09,27,21.10
2009,07,04,09,28,21.20
2009,07,04,09,29,21.30
2009,07,04,09,30,21.30
2009,07,04,09,31,21.40
2009,07,04,09,32,21.40
2009,07,04,09,33,21.40
2009,07,04,09,34,21.50
2009,07,04,09,35,21.50
2009,07,04,09,36,21.40
2009,07,04,09,37,21.30
2009,07,04,09,38,21.20
2009,07,04,09,39,21.10
2009,07,04,09,40,21.00
2009,07,04,09,41,21.00
2009,07,04,09,42,20.90
2009,07,04,09,43,20.90
2009,07,04,09,44,21.00
2009,07,04,09,45,21.10
2009,07,04,09,46,21.20
2009,07,04,09,47,21.20
2009,07,04,09,48,21.20
2009,07,04,09,49,21.20
2009,07,04,09,50,21.30
2009,07,04,09,51,21.30
2009,07,04,09,52,21.30
2009,07,04,09,53,21.30
2009,07,04,09,54,21.30
2009,07,04,09,55,21.30
2009,07,04,09,56,21.20
2009,07,04,09,57,21.10
2009,07,04,09,58,21.10
2009,07,04,09,59,21.10
2009,07,04,10,00,21.10
2009,07,04,10,01,21.10
2009,07,04,10,02,21.10
2009,07,04,10,03,21.10
2009,07,04,10,04,21.10
2009,07,04,10,05,21.10
2009,07,04,10,06,21.20
2009,07,04,10,07,21.20
2009,07,04,10,08,21.20
2009,07,04,10,09,21.30
2009,07,04,10,10,21.20
2009,07,04,10,11,21.20
2009,07,04,10,12,21.20
2009,07,04,10,13,21.20
2009,07,04,10,14,21.20
2009,07,04,10,15,21.10
2009,07,04,10,16,21.10
2009,07,04,10,17,21.20
2009,07,04,10,18,21.20
2009,07,04,10,19,21.40
2009,07,04,10,20,21.50
2009,07,04,10,21,21.70
2009,07,04,10,22,21.80
2009,07,04,10,23,21.80
2009,07,04,10,24,21.90
2009,07,04,10,25,21.90
2009,07,04,10,26,21.90
2009,07,04,10,27,21.90
2009,07,04,10,28,21.80
2009,07,04,10,29,21.90
2009,07,04,10,30,21.90
2009,07,04,10,31,21.80
2009,07,04,10,32,21.90
2009,07,04,10,33,21.90
2009,07,04,10,34,22.00
2009,07,04,10,35,22.10
2009,07,04,10,36,22.20
2009,07,04,10,37,22.30
2009,07,04,10,38,22.30
2009,07,04,10,39,22.30
2009,07,04,10,40,22.30
2009,07,04,10,41,22.20
2009,07,04,10,42,22.10
2009,07,04,10,43,22.10
2009,07,04,10,44,22.10
2009,07,04,10,45,22.10
2009,07,04,10,46,22.20
2009,07,04,10,47,22.30
2009,07,04,10,48,22.40
2009,07,04,10,49,22.40
2009,07,04,10,50,22.40
2009,07,04,10,51,22.50
2009,07,04,10,52,22.60
2009,07,04,10,53,22.60
2009,07,04,10,54,22.70
2009,07,04,10,55,22.70
2009,07,04,10,56,22.70
2009,07,04,10,57,22.60
2009,07,04,10,58,22.60
2009,07,04,10,59,22.60
2009,07,04,11,00,22.60
2009,07,04,11,01,22.70
2009,07,04,11,02,22.60
2009,07,04,11,03,22.60
2009,07,04,11,04,22.70
2009,07,04,11,05,22.70
2009,07,04,11,06,22.80
2009,07,04,11,07,22.80
2009,07,04,11,08,22.90
2009,07,04,11,09,22.90
2009,07,04,11,10,22.60
2009,07,04,11,11,22.50
2009,07,04,11,12,22.30
2009,07,04,11,13,22.30
2009,07,04,11,14,22.20
2009,07,04,11,15,22.20
2009,07,04,11,16,22.30
2009,07,04,11,17,22.30
2009,07,04,11,18,22.40
2009,07,04,11,19,22.50
2009,07,04,11,20,22.60
2009,07,04,11,21,22.60
2009,07,04,11,22,22.60
2009,07,04,11,23,22.60
2009,07,04,11,24,22.60
2009,07,04,11,25,22.70
2009,07,04,11,26,22.70
2009,07,04,11,27,22.80
2009,07,04,11,28,22.80
2009,07,04,11,29,22.90
2009,07,04,11,30,23.00
2009,07,04,11,31,23.10
2009,07,04,11,32,23.10
2009,07,04,11,33,23.10
2009,07,04,11,34,23.10
2009,07,04,11,35,23.00
2009,07,04,11,36,23.00
2009,07,04,11,37,22.90
2009,07,04,11,38,22.90
2009,07,04,11,39,22.90
2009,07,04,11,40,22.90
2009,07,04,11,41,22.80
2009,07,04,11,42,22.70
2009,07,04,11,43,22.60
2009,07,04,11,44,22.50
2009,07,04,11,45,22.50
2009,07,04,11,46,22.60
2009,07,04,11,47,22.80
2009,07,04,11,48,22.80
2009,07,04,11,49,22.80
2009,07,04,11,50,22.70
2009,07,04,11,51,22.70
2009,07,04,11,52,22.70
2009,07,04,11,53,22.70
2009,07,04,11,54,22.70
2009,07,04,11,55,22.90
2009,07,04,11,56,23.00
2009,07,04,11,57,23.10
2009,07,04,11,58,23.30
2009,07,04,11,59,23.50
2009,07,04,12,00,23.60
2009,07,04,12,01,23.70
2009,07,04,12,02,23.60
2009,07,04,12,03,23.50
2009,07,04,12,04,23.40
2009,07,04,12,05,23.30
2009,07,04,12,06,23.30
2009,07,04,12,07,23.40
2009,07,04,12,08,23.50
2009,07,04,12,09,23.60
2009,07,04,12,10,23.80
2009,07,04,12,11,24.00
2009,07,04,12,12,24.10
2009,07,04,12,13,24.10
2009,07,04,12,14,24.10
2009,07,04,12,15,24.20
2009,07,04,12,16,24.20
2009,07,04,12,17,24.30
2009,07,04,12,18,24.20
2009,07,04,12,19,24.20
2009,07,04,12,20,24.30
2009,07,04,12,21,24.30
2009,07,04,12,22,24.30
2009,07,04,12,23,24.20
2009,07,04,12,24,24.20
2009,07,04,12,25,24.10
2009,07,04,12,26,24.00
2009,07,04,12,27,23.90
2009,07,04,12,28,23.90
2009,07,04,12,29,24.00
2009,07,04,12,30,24.00
2009,07,04,12,31,23.90
2009,07,04,12,32,23.70
2009,07,04,12,33,23.50
2009,07,04,12,34,23.40
2009,07,04,12,35,23.30
2009,07,04,12,36,23.20
2009,07,04,12,37,23.20
2009,07,04,12,38,23.30
2009,07,04,12,39,23.30
2009,07,04,12,40,23.30
2009,07,04,12,41,23.30
2009,07,04,12,42,23.20
2009,07,04,12,43,23.20
2009,07,04,12,44,23.30
2009,07,04,12,45,23.40
2009,07,04,12,46,23.50
2009,07,04,12,47,23.60
2009,07,04,12,48,23.60
2009,07,04,12,49,23.60
2009,07,04,12,50,23.60
2009,07,04,12,51,23.70
2009,07,04,12,52,23.90
2009,07,04,12,53,24.10
2009,07,04,12,54,24.20
2009,07,04,12,55,24.40
2009,07,04,12,56,24.50
2009,07,04,12,57,24.60
2009,07,04,12,58,24.60
2009,07,04,12,59,24.60
2009,07,04,13,00,24.60
2009,07,04,13,01,24.70
2009,07,04,13,02,24.80
2009,07,04,13,03,24.90
2009,07,04,13,04,24.90
2009,07,04,13,05,24.80
2009,07,04,13,06,24.80
2009,07,04,13,07,24.90
2009,07,04,13,08,24.80
2009,07,04,13,09,24.70
2009,07,04,13,10,24.70
2009,07,04,13,11,24.60
2009,07,04,13,12,24.60
2009,07,04,13,13,24.70
2009,07,04,13,14,24.70
2009,07,04,13,15,24.70
2009,07,04,13,16,24.70
2009,07,04,13,17,24.60
2009,07,04,13,18,24.60
2009,07,04,13,19,24.60
2009,07,04,13,20,24.70
2009,07,04,13,21,24.70
2009,07,04,13,22,24.80
2009,07,04,13,23,24.90
2009,07,04,13,24,25.00
2009,07,04,13,25,25.00
2009,07,04,13,26,25.10
2009,07,04,13,27,25.10
2009,07,04,13,28,25.20
2009,07,04,13,29,25.10
2009,07,04,13,30,25.10
2009,07,04,13,31,24.90
2009,07,04,13,32,24.70
2009,07,04,13,33,24.50
2009,07,04,13,34,24.30
2009,07,04,13,35,24.20
2009,07,04,13,36,24.10
2009,07,04,13,37,24.10
2009,07,04,13,38,24.20
2009,07,04,13,39,24.40
2009,07,04,13,40,24.50
2009,07,04,13,41,24.50
2009,07,04,13,42,24.60
2009,07,04,13,43,24.60
2009,07,04,13,44,24.70
2009,07,04,13,45,24.60
2009,07,04,13,46,24.60
2009,07,04,13,47,24.60
2009,07,04,13,48,24.60
2009,07,04,13,49,24.60
2009,07,04,13,50,24.60
2009,07,04,13,51,24.70
2009,07,04,13,52,24.80
2009,07,04,13,53,24.90
2009,07,04,13,54,24.90
2009,07,04,13,55,25.00
2009,07,04,13,56,25.10
2009,07,04,13,57,25.10
2009,07,04,13,58,25.20
2009,07,04,13,59,25.30
2009,07,04,14,00,25.30
2009,07,04,14,01,25.30
2009,07,04,14,02,25.30
2009,07,04,14,03,25.20
2009,07,04,14,04,25.20
2009,07,04,14,05,25.20
2009,07,04,14,06,25.10
2009,07,04,14,07,25.10
2009,07,04,14,08,25.10
2009,07,04,14,09,25.10
2009,07,04,14,10,25.20
2009,07,04,14,11,25.20
2009,07,04,14,12,25.20
2009,07,04,14,13,25.20
2009,07,04,14,14,25.30
2009,07,04,14,15,25.30
2009,07,04,14,16,25.40
2009,07,04,14,17,25.40
2009,07,04,14,18,25.50
2009,07,04,14,19,25.50
2009,07,04,14,20,25.50
2009,07,04,14,21,25.40
2009,07,04,14,22,25.30
2009,07,04,14,23,25.20
2009,07,04,14,24,25.20
2009,07,04,14,25,25.10
2009,07,04,14,26,25.00
2009,07,04,14,27,25.00
2009,07,04,14,28,24.90
2009,07,04,14,29,24.90
2009,07,04,14,30,25.00
2009,07,04,14,31,25.10
2009,07,04,14,32,25.20
2009,07,04,14,33,25.10
2009,07,04,14,34,25.00
2009,07,04,14,35,25.00
2009,07,04,14,36,25.20
2009,07,04,14,37,25.30
2009,07,04,14,38,25.20
2009,07,04,14,39,25.10
2009,07,04,14,40,25.10
2009,07,04,14,41,25.10
2009,07,04,14,42,25.10
2009,07,04,14,43,25.20
2009,07,04,14,44,25.30
2009,07,04,14,45,25.30
2009,07,04,14,46,25.20
2009,07,04,14,47,25.20
2009,07,04,14,48,25.20
2009,07,04,14,49,25.20
2009,07,04,14,50,25.20
2009,07,04,14,51,25.20
2009,07,04,14,52,25.40
2009,07,04,14,53,25.50
2009,07,04,14,54,25.50
2009,07,04,14,55,25.50
2009,07,04,14,56,25.60
2009,07,04,14,57,25.60
2009,07,04,14,58,25.50
2009,07,04,14,59,25.40
2009,07,04,15,00,25.30
2009,07,04,15,01,25.10
2009,07,04,15,02,25.00
2009,07,04,15,03,25.00
2009,07,04,15,04,25.00
2009,07,04,15,05,24.90
2009,07,04,15,06,24.90
2009,07,04,15,07,25.00
2009,07,04,15,08,25.20
2009,07,04,15,09,25.30
2009,07,04,15,10,25.40
2009,07,04,15,11,25.50
2009,07,04,15,12,25.50
2009,07,04,15,13,25.60
2009,07,04,15,14,25.60
2009,07,04,15,15,25.50
2009,07,04,15,16,25.40
2009,07,04,15,17,25.40
2009,07,04,15,18,25.40
2009,07,04,15,19,25.30
2009,07,04,15,20,25.40
2009,07,04,15,21,25.40
2009,07,04,15,22,25.40
2009,07,04,15,23,25.50
2009,07,04,15,24,25.60
2009,07,04,15,25,25.60
2009,07,04,15,26,25.70
2009,07,04,15,27,25.60
2009,07,04,15,28,25.50
2009,07,04,15,29,25.40
2009,07,04,15,30,25.40
2009,07,04,15,31,25.30
2009,07,04,15,32,25.30
2009,07,04,15,33,25.20
2009,07,04,15,34,25.30
2009,07,04,15,35,25.40
2009,07,04,15,36,25.60
2009,07,04,15,37,25.60
2009,07,04,15,38,25.70
2009,07,04,15,39,25.60
2009,07,04,15,40,25.60
2009,07,04,15,41,25.60
2009,07,04,15,42,25.50
2009,07,04,15,43,25.50
2009,07,04,15,44,25.60
2009,07,04,15,45,25.70
2009,07,04,15,46,25.70
2009,07,04,15,47,25.60
2009,07,04,15,48,25.50
2009,07,04,15,49,25.50
2009,07,04,15,50,25.60
2009,07,04,15,51,25.70
2009,07,04,15,52,25.70
2009,07,04,15,53,25.70
2009,07,04,15,54,25.80
2009,07,04,15,55,25.90
2009,07,04,15,56,25.90
2009,07,04,15,57,25.90
2009,07,04,15,58,26.00
2009,07,04,15,59,26.00
2009,07,04,16,00,26.00
2009,07,04,16,01,25.90
2009,07,04,16,02,25.90
2009,07,04,16,03,25.90
2009,07,04,16,04,25.70
2009,07,04,16,05,25.50
2009,07,04,16,06,25.40
2009,07,04,16,07,25.30
2009,07,04,16,08,25.30
2009,07,04,16,09,25.30
2009,07,04,16,10,25.30
2009,07,04,16,11,25.20
2009,07,04,16,12,25.10
2009,07,04,16,13,25.00
2009,07,04,16,14,25.00
2009,07,04,16,15,24.90
2009,07,04,16,16,24.80
2009,07,04,16,17,24.80
2009,07,04,16,18,24.90
2009,07,04,16,19,24.90
2009,07,04,16,20,25.00
2009,07,04,16,21,25.10
2009,07,04,16,22,25.00
2009,07,04,16,23,24.90
2009,07,04,16,24,24.90
2009,07,04,16,25,25.00
2009,07,04,16,26,25.10
2009,07,04,16,27,25.20
2009,07,04,16,28,25.30
2009,07,04,16,29,25.30
2009,07,04,16,30,25.20
2009,07,04,16,31,25.20
2009,07,04,16,32,25.20
2009,07,04,16,33,25.20
2009,07,04,16,34,25.30
2009,07,04,16,35,25.30
2009,07,04,16,36,25.30
2009,07,04,16,37,25.30
2009,07,04,16,38,25.30
2009,07,04,16,39,25.30
2009,07,04,16,40,25.20
2009,07,04,16,41,25.30
2009,07,04,16,42,25.40
2009,07,04,16,43,25.50
2009,07,04,16,44,25.60
2009,07,04,16,45,25.70
2009,07,04,16,46,25.80
2009,07,04,16,47,25.80
2009,07,04,16,48,25.60
2009,07,04,16,49,25.50
2009,07,04,16,50,25.40
2009,07,04,16,51,25.30
2009,07,04,16,52,25.30
2009,07,04,16,53,25.30
2009,07,04,16,54,25.30
2009,07,04,16,55,25.40
2009,07,04,16,56,25.60
2009,07,04,16,57,25.70
2009,07,04,16,58,25.60
2009,07,04,16,59,25.60
2009,07,04,17,00,25.60
2009,07,04,17,01,25.60
2009,07,04,17,02,25.60
2009,07,04,17,03,25.60
2009,07,04,17,04,25.50
2009,07,04,17,05,25.50
2009,07,04,17,06,25.50
2009,07,04,17,07,25.60
2009,07,04,17,08,25.60
2009,07,04,17,09,25.60
2009,07,04,17,10,25.50
2009,07,04,17,11,25.50
2009,07,04,17,12,25.60
2009,07,04,17,13,25.60
2009,07,04,17,14,25.70
2009,07,04,17,15,25.70
2009,07,04,17,16,25.80
2009,07,04,17,17,25.70
2009,07,04,17,18,25.60
2009,07,04,17,19,25.60
2009,07,04,17,20,25.60
2009,07,04,17,21,25.60
2009,07,04,17,22,25.50
2009,07,04,17,23,25.60
2009,07,04,17,24,25.60